TimeEST,TemperatureF,Dew PointF,Humidity,Sea Level PressureIn,VisibilityMPH,Wind Direction,Wind SpeedMPH,Gust SpeedMPH,PrecipitationIn,Events,Conditions,WindDirDegrees,DateUTC
12:15 AM,32.9,32.0,96,30.24,2.5,NNW,10.4,16.1,N/A,Snow,Light Snow,340,2013-03-07 05:15:00
12:35 AM,33.1,31.8,95,30.24,10.0,NNW,8.1,-,N/A,,Overcast,340,2013-03-07 05:35:00
12:55 AM,33.1,31.6,94,30.24,10.0,North,6.9,-,N/A,,Overcast,350,2013-03-07 05:55:00
1:15 AM,33.1,31.1,92,30.24,10.0,North,5.8,-,N/A,,Overcast,360,2013-03-07 06:15:00
1:35 AM,33.1,30.9,92,30.24,10.0,NNW,5.8,-,N/A,,Overcast,340,2013-03-07 06:35:00
1:54 AM,33.1,30.2,89,30.25,10.0,North,8.1,-,N/A,,Overcast,350,2013-03-07 06:54:00
2:15 AM,33.1,30.2,89,30.25,10.0,NNW,9.2,-,N/A,,Overcast,330,2013-03-07 07:15:00
2:35 AM,33.1,30.2,89,30.25,10.0,NNW,9.2,-,N/A,,Overcast,330,2013-03-07 07:35:00
2:55 AM,32.9,30.6,91,30.25,10.0,NNW,6.9,-,N/A,,Overcast,330,2013-03-07 07:55:00
3:15 AM,32.5,30.6,92,30.25,10.0,NNW,9.2,-,N/A,,Overcast,330,2013-03-07 08:15:00
3:35 AM,32.5,30.2,91,30.26,10.0,NNW,5.8,-,N/A,,Overcast,340,2013-03-07 08:35:00
3:55 AM,32.9,30.0,89,30.27,10.0,North,8.1,-,N/A,,Overcast,350,2013-03-07 08:55:00
4:15 AM,32.9,29.8,88,30.27,10.0,NNW,8.1,-,N/A,,Overcast,330,2013-03-07 09:15:00
4:35 AM,32.9,28.4,84,30.28,10.0,NNW,9.2,-,N/A,,Overcast,340,2013-03-07 09:35:00
4:55 AM,32.9,28.2,83,30.28,10.0,North,8.1,-,N/A,,Overcast,350,2013-03-07 09:55:00
5:15 AM,32.7,27.7,82,30.29,10.0,North,5.8,-,N/A,,Overcast,360,2013-03-07 10:15:00
5:35 AM,32.5,28.4,85,30.29,10.0,NNW,4.6,-,N/A,,Overcast,330,2013-03-07 10:35:00
5:55 AM,32.4,28.2,85,30.29,10.0,North,6.9,-,N/A,,Overcast,10,2013-03-07 10:55:00
6:14 AM,32.2,27.5,83,30.29,10.0,NNE,5.8,-,N/A,,Overcast,20,2013-03-07 11:14:00
6:35 AM,32.0,27.5,83,30.30,10.0,Calm,Calm,-,N/A,,Overcast,0,2013-03-07 11:35:00
6:54 AM,32.2,27.5,83,30.30,10.0,NW,3.5,-,N/A,,Overcast,320,2013-03-07 11:54:00
7:15 AM,32.0,27.9,85,30.31,10.0,NNW,3.5,-,N/A,,Overcast,340,2013-03-07 12:15:00
7:35 AM,32.0,28.2,86,30.32,10.0,Calm,Calm,-,N/A,,Overcast,0,2013-03-07 12:35:00
7:55 AM,32.0,28.4,87,30.33,10.0,North,4.6,-,N/A,,Overcast,350,2013-03-07 12:55:00
8:15 AM,32.2,28.2,85,30.34,10.0,NNE,5.8,-,N/A,,Overcast,30,2013-03-07 13:15:00
8:35 AM,32.2,27.3,82,30.34,10.0,North,3.5,-,N/A,,Overcast,10,2013-03-07 13:35:00
8:55 AM,32.7,26.4,78,30.35,10.0,Calm,Calm,-,N/A,,Overcast,0,2013-03-07 13:55:00
9:15 AM,32.7,26.4,78,30.34,10.0,Calm,Calm,-,N/A,,Overcast,0,2013-03-07 14:15:00
9:35 AM,33.6,25.3,72,30.35,10.0,Calm,Calm,-,N/A,,Overcast,0,2013-03-07 14:35:00
9:55 AM,34.0,23.5,66,30.36,10.0,North,5.8,-,N/A,,Overcast,360,2013-03-07 14:55:00
10:15 AM,34.2,23.4,65,30.36,10.0,NNW,3.5,-,N/A,,Overcast,330,2013-03-07 15:15:00
10:35 AM,33.8,24.1,68,30.36,10.0,NNW,3.5,-,N/A,,Overcast,340,2013-03-07 15:35:00
10:55 AM,34.0,24.8,69,30.36,10.0,Calm,Calm,-,N/A,,Overcast,0,2013-03-07 15:55:00
11:15 AM,34.2,23.7,66,30.36,10.0,NNW,4.6,-,N/A,,Overcast,330,2013-03-07 16:15:00
11:35 AM,34.9,24.1,65,30.36,10.0,WNW,8.1,-,N/A,,Overcast,300,2013-03-07 16:35:00
11:55 AM,33.8,25.0,70,30.36,10.0,NNW,5.8,-,N/A,,Overcast,330,2013-03-07 16:55:00
12:14 PM,34.7,24.6,67,30.37,10.0,WNW,3.5,-,N/A,,Overcast,290,2013-03-07 17:14:00
12:35 PM,35.1,24.4,65,30.36,10.0,West,3.5,-,N/A,,Overcast,280,2013-03-07 17:35:00
12:55 PM,36.0,23.9,62,30.35,10.0,WNW,3.5,-,N/A,,Overcast,290,2013-03-07 17:55:00
1:15 PM,36.3,25.0,63,30.35,10.0,WNW,6.9,-,N/A,,Mostly Cloudy,290,2013-03-07 18:15:00
1:34 PM,36.0,24.4,63,30.35,10.0,WNW,8.1,-,N/A,,Overcast,290,2013-03-07 18:34:00
1:55 PM,35.4,26.1,69,30.36,10.0,NW,6.9,-,N/A,,Overcast,320,2013-03-07 18:55:00
2:14 PM,34.9,22.8,61,30.35,10.0,NW,5.8,-,N/A,,Overcast,310,2013-03-07 19:14:00
2:35 PM,34.7,22.6,61,30.35,10.0,WNW,8.1,-,N/A,,Overcast,290,2013-03-07 19:35:00
2:54 PM,34.3,23.4,64,30.36,10.0,NNW,6.9,-,N/A,,Overcast,330,2013-03-07 19:54:00
3:15 PM,34.5,23.0,63,30.36,10.0,NNW,6.9,-,N/A,,Overcast,340,2013-03-07 20:15:00
3:35 PM,34.0,24.3,68,30.36,10.0,North,6.9,-,N/A,,Overcast,350,2013-03-07 20:35:00
3:55 PM,33.8,24.1,68,30.36,10.0,NW,9.2,-,N/A,,Overcast,320,2013-03-07 20:55:00
4:15 PM,33.4,24.3,69,30.36,10.0,North,6.9,-,N/A,,Overcast,350,2013-03-07 21:15:00
4:34 PM,33.4,24.8,71,30.37,10.0,NNW,9.2,-,N/A,,Overcast,340,2013-03-07 21:34:00
4:55 PM,33.3,24.8,71,30.37,10.0,NNW,8.1,-,N/A,,Overcast,330,2013-03-07 21:55:00
5:15 PM,32.9,25.7,75,30.37,10.0,NNW,8.1,-,N/A,,Overcast,330,2013-03-07 22:15:00
5:35 PM,32.2,25.5,76,30.38,10.0,North,10.4,-,N/A,,Overcast,350,2013-03-07 22:35:00
5:55 PM,32.0,25.3,76,30.38,10.0,NNW,6.9,-,N/A,,Overcast,340,2013-03-07 22:55:00
6:15 PM,32.0,25.0,75,30.39,10.0,North,5.8,-,N/A,,Overcast,350,2013-03-07 23:15:00
6:35 PM,31.6,24.8,76,30.40,10.0,North,3.5,-,N/A,,Mostly Cloudy,350,2013-03-07 23:35:00
6:55 PM,30.9,24.6,77,30.40,10.0,North,4.6,-,N/A,,Scattered Clouds,10,2013-03-07 23:55:00
8:35 PM,28.0,23.9,84,30.40,10.0,Calm,Calm,-,N/A,,Clear,0,2013-03-08 01:35:00
8:55 PM,26.6,23.7,89,30.40,10.0,Calm,Calm,-,N/A,,Clear,0,2013-03-08 01:55:00
9:14 PM,26.2,23.9,91,30.40,10.0,Calm,Calm,-,N/A,,Clear,0,2013-03-08 02:14:00
9:35 PM,25.7,23.4,91,30.40,10.0,Calm,Calm,-,N/A,,Clear,0,2013-03-08 02:35:00
9:55 PM,25.2,23.0,91,30.40,10.0,Calm,Calm,-,N/A,,Clear,0,2013-03-08 02:55:00
10:14 PM,23.9,21.9,92,30.40,10.0,Calm,Calm,-,N/A,,Clear,0,2013-03-08 03:14:00
10:35 PM,23.7,22.1,94,30.41,10.0,Calm,Calm,-,N/A,,Clear,0,2013-03-08 03:35:00
10:55 PM,22.6,21.2,94,30.41,10.0,Calm,Calm,-,N/A,,Clear,0,2013-03-08 03:55:00
11:15 PM,23.5,22.5,96,30.41,10.0,Calm,Calm,-,N/A,,Clear,0,2013-03-08 04:15:00
11:35 PM,21.9,20.7,95,30.41,10.0,Calm,Calm,-,N/A,,Clear,0,2013-03-08 04:35:00
11:55 PM,21.6,20.1,94,30.41,10.0,Calm,Calm,-,N/A,,Clear,0,2013-03-08 04:55:00